Raton, NM

5:38 PM MST on January 21, 2017 (GMT -0700)
Raton

Weather History for KRTN - July, 2013

Change the Weather History Date:

Saturday, July 20, 2013

  Actual Average (KTAD) Record (KTAD)
Temperature  
Mean Temperature 68 °F -  
Max Temperature 81 °F 86 °F 102 °F (2005)
Min Temperature 57 °F 58 °F 51 °F (1992)
Cooling Degree Days 4    
Growing Degree Days 18 (Base 50)    
Moisture  
Dew Point 57 °F    
Average Humidity 73    
Maximum Humidity 97    
Minimum Humidity 42    
Precipitation  
Precipitation 0.01 in - - ()
Sea Level Pressure  
Sea Level Pressure 29.92 in    
Wind  
Wind Speed 6 mph (South)    
Max Wind Speed 9 mph    
Max Gust Speed -    
Visibility 10 miles    
Events      
Averages and records for this station are not official NWS values.
T = Trace of Precipitation, MM = Missing Value Source: NWS Daily Summary

Daily Weather History Graph

Daily Weather History Graph

Search for Another Location

Airport or City:

Trip Planner

Search our weather history database for the weather conditions in past years. The results will help you decide how hot, cold, wet, or windy it might be!

Date:

Astronomy

Jul. 20, 2013 Rise Set
Actual Time 5:54 AM MDT 8:13 PM MDT
Civil Twilight 5:25 AM MDT 8:43 PM MDT
Nautical Twilight 4:48 AM MDT 9:19 PM MDT
Astronomical Twilight 4:09 AM MDT 9:58 PM MDT
Moon 6:19 PM MDT (7/20) 3:37 AM MDT (7/20)
Length of Visible Light 15h 17m
Length of Day
14h 19m
Waxing Gibbous, 94% of the Moon is Illuminated
Jul 20
Waxing Gibbous
Jul 22
Full
Jul 29
Last Quarter
Aug 6
New
Aug 14
First Quarter

Hourly Weather History & Observations

Time (MDT) Temp. Heat Index Dew Point Humidity Pressure Visibility Wind Dir Wind Speed Gust Speed Precip Events Conditions
12:53 AM 60.1 °F - 57.9 °F 93% 29.98 in 10.0 mi NE 9.2 mph - 0.01 in   Overcast
1:53 AM 60.1 °F - 57.9 °F 93% 29.95 in 10.0 mi East 5.8 mph - N/A   Partly Cloudy
2:53 AM 60.1 °F - 57.0 °F 90% 29.91 in 10.0 mi NE 5.8 mph - N/A   Clear
3:53 AM 57.9 °F - 57.0 °F 97% 29.90 in 10.0 mi East 5.8 mph - N/A   Clear
4:53 AM 57.0 °F - 55.9 °F 96% 29.91 in 10.0 mi Calm Calm - N/A   Clear
5:53 AM 57.0 °F - 55.0 °F 93% 29.93 in 10.0 mi SW 8.1 mph - N/A   Clear
6:53 AM 59.0 °F - 55.9 °F 90% 29.94 in 10.0 mi SW 5.8 mph - N/A   Clear
7:05 AM 59.0 °F - 57.2 °F 94% 30.19 in 10.0 mi South 4.6 mph - N/A   Partly Cloudy
7:28 AM 59.0 °F - 57.2 °F 94% 30.19 in 10.0 mi South 4.6 mph - N/A   Mostly Cloudy
7:53 AM 60.1 °F - 57.9 °F 93% 29.97 in 10.0 mi Calm Calm - N/A   Overcast
8:29 AM 60.8 °F - 57.2 °F 88% 30.19 in 10.0 mi Calm Calm - N/A   Partly Cloudy
8:53 AM 64.0 °F - 57.9 °F 80% 29.96 in 10.0 mi ENE 3.5 mph - N/A   Clear
9:53 AM 68.0 °F - 57.9 °F 70% 29.94 in 10.0 mi ENE 6.9 mph - N/A   Clear
10:53 AM 71.1 °F - 57.0 °F 61% 29.93 in 10.0 mi Calm Calm - N/A   Clear
11:53 AM 73.0 °F - 57.0 °F 57% 29.92 in 10.0 mi Variable 6.9 mph - N/A   Clear
12:53 PM 75.9 °F - 57.9 °F 54% 29.90 in 10.0 mi SSW 6.9 mph - N/A   Clear
1:53 PM 78.1 °F - 57.0 °F 48% 29.87 in 10.0 mi South 5.8 mph - N/A   Clear
2:53 PM 79.0 °F - 55.9 °F 45% 29.84 in 10.0 mi South 6.9 mph - N/A   Clear
3:53 PM 80.1 °F 80.1 °F 55.0 °F 42% 29.82 in 10.0 mi South 8.1 mph - N/A   Clear
4:53 PM 79.0 °F - 55.9 °F 45% 29.82 in 10.0 mi SSW 6.9 mph - N/A   Clear
5:53 PM 80.1 °F 80.1 °F 55.0 °F 42% 29.81 in 10.0 mi SW 6.9 mph - N/A   Clear
6:53 PM 78.1 °F - 55.0 °F 45% 29.81 in 10.0 mi SW 4.6 mph - N/A   Clear
7:53 PM 73.9 °F - 60.1 °F 62% 29.83 in 10.0 mi SSW 6.9 mph - N/A   Clear
8:53 PM 71.1 °F - 61.0 °F 70% 29.84 in 10.0 mi South 8.1 mph - N/A   Clear
9:53 PM 68.0 °F - 61.0 °F 78% 29.84 in 10.0 mi WSW 5.8 mph - N/A   Clear
10:53 PM 66.9 °F - 59.0 °F 76% 29.86 in 10.0 mi West 3.5 mph - N/A   Clear
11:53 PM 66.9 °F - 57.9 °F 73% 29.86 in 10.0 mi NW 3.5 mph - N/A   Clear